CW0962 Weather Reports


Display with metric or nautical units.
time (UTC)temp
F
wind
direction
speed
MPH
gust
MPH
rain 1hr
in
rain 24hr
in
rain mn
in
humidity
%
barometer
mb
20260904235520 71 93 0.0 0.0 0.00 0.01 0.01 80 1006.7
20260904235031 71 93 0.0 0.0 0.00 0.01 0.01 80 1006.7
20260904234538 71 93 0.0 0.0 0.00 0.01 0.01 80 1006.6
20260904234027 71 93 0.0 0.0 0.00 0.01 0.01 79 1006.5
20260904233459 72 93 0.0 0.0 0.00 0.01 0.01 79 1006.5
20260904232959 72 93 0.0 0.0 0.00 0.01 0.01 79 1006.6
20260904232518 72 93 0.0 0.0 0.00 0.01 0.01 78 1006.5
20260904232005 72 93 0.0 0.0 0.00 0.01 0.01 78 1006.5
20260904231502 72 93 0.0 2.0 0.00 0.01 0.01 78 1006.4
20260904231045 72 93 1.0 5.0 0.00 0.01 0.01 78 1006.4
20260904230459 72 93 1.0 5.0 0.00 0.01 0.01 78 1006.3
20260904230004 73 65 1.0 2.0 0.00 0.01 0.01 78 1006.4
20260904225508 73 64 0.0 2.0 0.00 0.01 0.01 77 1006.5
20260904224516 73 64 0.0 2.0 0.00 0.01 0.01 76 1006.4
20260904224003 73 63 0.0 2.0 0.00 0.01 0.01 76 1006.3
20260904223514 73 63 0.0 1.0 0.00 0.01 0.01 76 1006.4
20260904223009 74 63 0.0 2.0 0.00 0.01 0.01 75 1006.3
20260904222521 74 63 0.0 2.0 0.00 0.01 0.01 74 1006.3
20260904221501 74 327 1.0 2.0 0.00 0.01 0.01 73 1006.2
20260904221006 74 327 1.0 2.0 0.00 0.01 0.01 72 1006.2
20260904220506 75 327 1.0 4.0 0.00 0.01 0.01 73 1006.2
20260904220011 75 40 1.0 4.0 0.00 0.01 0.01 72 1006.2
20260904215506 75 40 1.0 2.0 0.00 0.01 0.01 72 1006.2
20260904215006 75 40 1.0 4.0 0.00 0.01 0.01 71 1006.1
20260904214512 76 40 1.0 4.0 0.00 0.01 0.01 71 1006.0
20260904214001 77 128 1.0 2.0 0.00 0.01 0.01 71 1006.0
20260904213459 77 129 1.0 2.0 0.00 0.01 0.01 70 1005.9
20260904213006 77 129 1.0 2.0 0.00 0.01 0.01 70 1006.0
20260904211030 78 135 0.0 2.0 0.00 0.01 0.01 66 1006.1
20260904210504 79 135 1.0 2.0 0.00 0.01 0.01 66 1006.2
20260904210004 80 135 1.0 2.0 0.00 0.01 0.01 64 1006.1
20260904205508 80 136 1.0 4.0 0.00 0.01 0.01 63 1006.1
20260904205005 81 136 1.0 4.0 0.00 0.01 0.01 64 1006.1
20260904204504 81 136 1.0 4.0 0.00 0.01 0.01 63 1006.0
20260904203501 81 106 1.0 4.0 0.00 0.01 0.01 63 1006.1
20260904203006 81 82 0.0 2.0 0.00 0.01 0.01 63 1006.0
20260904202521 81 305 0.0 2.0 0.00 0.01 0.01 64 1006.0
20260904202029 81 211 1.0 2.0 0.00 0.01 0.01 65 1006.2
20260904201504 81 211 1.0 3.0 0.00 0.01 0.01 64 1006.2
20260904201026 81 210 1.0 4.0 0.00 0.01 0.01 62 1006.0
20260904200005 80 69 1.0 4.0 0.00 0.01 0.01 65 1006.0
20260904195504 80 78 1.0 4.0 0.00 0.06 0.01 66 1005.9
20260904195011 80 344 1.0 2.0 0.00 0.06 0.01 65 1006.0
20260904194553 80 344 1.0 2.0 0.00 0.06 0.01 64 1006.1
20260904194002 80 202 1.0 2.0 0.00 0.06 0.01 66 1006.1
20260904193503 80 202 1.0 2.0 0.00 0.06 0.01 65 1006.1
20260904193002 80 246 1.0 2.0 0.00 0.06 0.01 64 1006.2
20260904192504 81 238 1.0 4.0 0.00 0.06 0.01 64 1006.2
20260904192009 81 256 1.0 3.0 0.00 0.06 0.01 64 1006.3
20260904191003 80 179 1.0 4.0 0.00 0.06 0.01 65 1006.4
20260904190503 80 78 1.0 4.0 0.00 0.06 0.01 66 1006.3
20260904190014 80 243 1.0 2.0 0.00 0.06 0.01 67 1006.3
20260904185527 80 215 1.0 2.0 0.00 0.06 0.01 66 1006.3
20260904185006 80 164 1.0 2.0 0.00 0.06 0.01 68 1006.4
20260904184503 79 131 1.0 4.0 0.00 0.06 0.01 68 1006.4
20260904183516 79 355 2.0 5.0 0.00 0.06 0.01 68 1006.4
20260904183005 79 323 2.0 5.0 0.00 0.06 0.01 68 1006.4
20260904182509 79 337 2.0 5.0 0.00 0.06 0.01 69 1006.5
20260904182021 79 10 2.0 4.0 0.00 0.06 0.01 70 1006.5
20260904181459 78 263 1.0 3.0 0.00 0.06 0.01 71 1006.4
20260904181009 78 336 1.0 4.0 0.00 0.06 0.01 72 1006.5
20260904180503 77 306 1.0 4.0 0.00 0.06 0.01 73 1006.6
20260904175510 77 207 1.0 5.0 0.00 0.06 0.01 73 1006.7
20260904175010 77 346 1.0 4.0 0.00 0.06 0.01 73 1006.6
20260904174001 77 62 1.0 3.0 0.00 0.06 0.01 72 1006.8
20260904173502 77 324 1.0 4.0 0.00 0.06 0.01 74 1006.9
20260904173029 77 247 1.0 4.0 0.00 0.06 0.01 73 1006.9
20260904172521 76 346 1.0 4.0 0.00 0.06 0.01 74 1006.8
20260904171515 76 284 1.0 4.0 0.00 0.06 0.01 74 1006.7
20260904171006 76 228 1.0 4.0 0.00 0.06 0.01 74 1006.7
20260904170006 76 15 1.0 4.0 0.00 0.06 0.01 74 1006.8
20260904165515 76 342 1.0 4.0 0.00 0.06 0.01 74 1006.9
20260904164502 76 134 1.0 5.0 0.00 0.06 0.01 76 1007.1
20260904164004 76 248 1.0 4.0 0.00 0.06 0.01 75 1007.0
20260904163514 76 360 1.0 3.0 0.00 0.06 0.01 75 1007.2
20260904163003 76 183 1.0 5.0 0.00 0.06 0.01 75 1007.1
20260904162005 76 127 2.0 5.0 0.00 0.06 0.01 76 1007.3
20260904161516 76 319 1.0 4.0 0.00 0.06 0.01 75 1007.3
20260904161038 76 119 1.0 4.0 0.00 0.06 0.01 76 1007.3
20260904160500 76 265 1.0 4.0 0.00 0.06 0.01 78 1007.3
20260904160005 76 163 1.0 3.0 0.00 0.06 0.01 76 1007.4
20260904155500 76 171 1.0 4.0 0.00 0.06 0.01 77 1007.4
20260904155026 75 235 1.0 4.0 0.00 0.06 0.01 77 1007.4
20260904154502 75 104 1.0 4.0 0.00 0.06 0.01 79 1007.4
20260904154010 75 109 1.0 3.0 0.00 0.06 0.01 79 1007.4
20260904153002 75 336 1.0 4.0 0.00 0.06 0.01 82 1007.3
20260904152522 75 127 1.0 4.0 0.00 0.06 0.01 85 1007.3
20260904152029 74 129 1.0 5.0 0.00 0.06 0.01 86 1007.3
20260904151502 74 306 1.0 5.0 0.00 0.06 0.01 88 1007.4
20260904151021 73 96 1.0 5.0 0.00 0.06 0.01 89 1007.5
20260904150508 72 117 1.0 4.0 0.00 0.06 0.01 90 1007.6
20260904150013 72 92 1.0 4.0 0.00 0.06 0.01 90 1007.7
20260904145523 71 93 1.0 4.0 0.00 0.06 0.01 90 1007.7
20260904145010 71 121 1.0 2.0 0.00 0.06 0.01 91 1007.7
20260904144527 70 110 0.0 2.0 0.00 0.06 0.01 91 1007.8
20260904144031 69 19 0.0 2.0 0.00 0.06 0.01 91 1007.8
20260904143027 69 74 0.0 2.0 0.00 0.06 0.01 91 1007.9
20260904142513 68 92 0.0 2.0 0.00 0.06 0.01 91 1008.0
20260904142006 68 92 0.0 2.0 0.00 0.06 0.01 91 1008.0
20260904141506 68 92 0.0 2.0 0.00 0.06 0.01 91 1008.0
20260904141009 68 92 0.0 2.0 0.00 0.06 0.01 91 1008.0
20260904135020 68 92 0.0 1.0 0.00 0.07 0.01 91 1008.0
20260904134507 68 293 0.0 1.0 0.00 0.07 0.01 91 1008.1
20260904134002 68 293 0.0 1.0 0.00 0.07 0.01 91 1008.0
20260904133520 68 305 0.0 0.0 0.00 0.07 0.01 91 1007.9
20260904133004 68 305 0.0 0.0 0.00 0.07 0.01 91 1008.0
20260904132505 68 305 0.0 0.0 0.00 0.07 0.01 91 1007.9
20260904132026 68 305 0.0 0.0 0.00 0.07 0.01 91 1007.9
20260904131523 68 305 0.0 0.0 0.00 0.07 0.01 91 1008.0
20260904130505 68 305 0.0 1.0 0.00 0.07 0.01 91 1008.0
20260904130006 68 305 0.0 1.0 0.00 0.07 0.01 91 1007.9
20260904125511 68 300 0.0 0.0 0.00 0.08 0.01 91 1008.0
20260904124504 68 300 0.0 0.0 0.00 0.08 0.01 91 1007.9
20260904124008 69 199 0.0 0.0 0.00 0.08 0.01 91 1007.9
20260904123537 69 199 0.0 0.0 0.00 0.08 0.01 91 1007.9
20260904123003 68 199 0.0 0.0 0.00 0.08 0.01 92 1007.8
20260904122508 68 199 0.0 0.0 0.00 0.08 0.01 91 1007.8
20260904122031 68 163 0.0 0.0 0.00 0.08 0.01 91 1007.8
20260904121504 68 163 0.0 0.0 0.00 0.08 0.01 91 1007.9
20260904121010 68 163 0.0 0.0 0.00 0.08 0.01 91 1007.9
20260904120518 68 163 0.0 0.0 0.00 0.08 0.01 91 1007.9
20260904120034 68 163 0.0 0.0 0.00 0.08 0.01 91 1007.9
20260904115003 68 148 0.0 0.0 0.00 0.09 0.01 91 1007.9
20260904114521 68 148 0.0 0.0 0.00 0.09 0.01 91 1007.9
20260904114006 68 148 0.0 0.0 0.00 0.09 0.01 91 1007.9
20260904113509 67 148 0.0 0.0 0.00 0.09 0.01 91 1007.9
20260904113004 67 148 0.0 0.0 0.00 0.09 0.01 91 1008.0
20260904112534 67 148 0.0 0.0 0.00 0.09 0.01 91 1007.9
20260904112008 67 148 0.0 0.0 0.00 0.09 0.01 91 1008.0
20260904111515 67 148 0.0 0.0 0.00 0.09 0.01 91 1007.9
20260904110511 67 148 0.0 0.0 0.00 0.09 0.01 91 1008.0
20260904105458 67 148 0.0 0.0 0.00 0.37 0.01 91 1007.8
20260904104505 67 148 0.0 0.0 0.00 0.37 0.01 91 1007.8
20260904104009 67 148 0.0 0.0 0.00 0.37 0.01 91 1007.8
20260904103516 67 148 0.0 0.0 0.00 0.37 0.01 91 1007.7
20260904102513 67 148 0.0 0.0 0.00 0.37 0.01 91 1007.6
20260904102012 67 148 0.0 0.0 0.00 0.37 0.01 91 1007.6
20260904101459 67 148 0.0 0.0 0.00 0.37 0.01 91 1007.5
20260904101007 67 148 0.0 0.0 0.00 0.37 0.01 91 1007.4
20260904100507 67 148 0.0 0.0 0.00 0.37 0.01 91 1007.4
20260904100005 67 148 0.0 0.0 0.00 0.37 0.01 91 1007.4
20260904095500 67 148 0.0 0.0 0.00 0.38 0.01 91 1007.4
20260904095005 67 148 0.0 0.0 0.00 0.38 0.01 91 1007.4
20260904094501 67 148 0.0 0.0 0.00 0.38 0.01 91 1007.4
20260904093959 67 148 0.0 0.0 0.00 0.38 0.01 91 1007.4
20260904093459 67 148 0.0 0.0 0.00 0.38 0.01 91 1007.4
20260904093022 67 148 0.0 0.0 0.00 0.38 0.01 91 1007.2
20260904092458 67 148 0.0 0.0 0.00 0.38 0.01 91 1007.3
20260904091959 67 148 0.0 0.0 0.00 0.38 0.01 91 1007.3
20260904091508 67 148 0.0 0.0 0.01 0.38 0.01 91 1007.3
20260904091003 67 148 0.0 0.0 0.01 0.38 0.01 91 1007.2
20260904090520 67 148 0.0 0.0 0.01 0.38 0.01 91 1007.2
20260904090004 67 148 0.0 0.0 0.01 0.38 0.01 91 1007.4
20260904085517 67 148 0.0 0.0 0.01 0.39 0.01 91 1007.4
20260904084959 67 148 0.0 0.0 0.01 0.39 0.01 91 1007.4
20260904084515 67 148 0.0 0.0 0.01 0.39 0.01 91 1007.4
20260904084027 67 148 0.0 0.0 0.01 0.39 0.01 91 1007.6
20260904082504 68 148 0.0 0.0 0.01 0.39 0.01 91 1007.6
20260904082004 68 148 0.0 0.0 0.01 0.39 0.01 91 1007.6
20260904081516 68 148 0.0 0.0 0.00 0.38 0.00 91 1007.5
20260904081002 68 148 0.0 0.0 0.00 0.38 0.00 91 1007.5
20260904080503 68 148 0.0 0.0 0.00 0.38 0.00 91 1007.5
20260904080022 68 148 0.0 0.0 0.00 0.38 0.00 91 1007.5
20260904075518 68 148 0.0 0.0 0.00 0.38 0.00 91 1007.7
20260904075003 68 148 0.0 0.0 0.00 0.38 0.00 91 1007.8
20260904074500 68 148 0.0 0.0 0.00 0.38 0.00 91 1007.8
20260904074023 68 148 0.0 0.0 0.00 0.38 0.00 91 1007.8
20260904073002 67 148 0.0 0.0 0.00 0.38 0.00 91 1008.0
20260904072512 67 148 0.0 0.0 0.00 0.38 0.00 91 1008.0
20260904072005 67 148 0.0 0.0 0.00 0.38 0.00 90 1008.0
20260904071004 67 148 0.0 0.0 0.00 0.38 0.00 90 1008.1
20260904070509 67 148 0.0 0.0 0.00 0.38 0.00 91 1008.2
20260904065505 67 148 0.0 0.0 0.00 0.38 0.00 90 1008.3
20260904065029 67 148 0.0 0.0 0.00 0.38 0.00 90 1008.3
20260904064512 67 148 0.0 0.0 0.00 0.38 0.00 90 1008.3
20260904064031 67 148 0.0 0.0 0.00 0.38 0.00 90 1008.3
20260904063501 67 148 0.0 0.0 0.00 0.38 0.00 90 1008.4
20260904063005 67 148 0.0 0.0 0.00 0.38 0.00 90 1008.4
20260904062532 67 148 0.0 0.0 0.00 0.38 0.00 90 1008.5
20260904062028 67 148 0.0 0.0 0.00 0.38 0.00 90 1008.4
20260904061506 67 148 0.0 0.0 0.00 0.38 0.00 90 1008.3
20260904061018 67 148 0.0 0.0 0.00 0.38 0.00 90 1008.3
20260904060508 67 148 0.0 0.0 0.00 0.38 0.00 90 1008.3
20260904060001 67 148 0.0 0.0 0.00 0.38 0.00 90 1008.4
20260904055507 67 148 0.0 0.0 0.00 0.38 0.00 90 1008.4
20260904054510 67 148 0.0 0.0 0.00 0.38 0.00 90 1008.6
20260904054000 67 148 0.0 0.0 0.00 0.38 0.00 90 1008.5
20260904053535 67 148 0.0 0.0 0.00 0.38 0.00 90 1008.6
20260904053000 67 148 0.0 0.0 0.00 0.38 0.00 90 1008.6
20260904052509 67 148 0.0 0.0 0.00 0.38 0.00 90 1008.6
20260904052012 67 148 0.0 0.0 0.00 0.38 0.00 90 1008.8
20260904051510 68 148 0.0 0.0 0.00 0.38 0.00 90 1008.8
20260904050459 68 148 0.0 0.0 0.00 0.38 0.00 90 1009.0
20260904050004 68 132 0.0 0.0 0.00 0.38 0.00 90 1009.1
20260904045513 68 132 0.0 0.0 0.00 0.38 0.00 90 1009.2
20260904044501 68 84 0.0 0.0 0.00 0.38 0.00 90 1009.3
20260904044010 68 83 0.0 0.0 0.00 0.38 0.00 90 1009.3
20260904043501 68 83 0.0 0.0 0.00 0.38 0.00 90 1009.1
20260904043013 68 83 0.0 0.0 0.00 0.38 0.00 90 1009.3
20260904042458 68 83 0.0 0.0 0.00 0.38 0.00 90 1009.4
20260904041003 68 83 0.0 0.0 0.00 0.38 0.00 90 1009.4
20260904040007 68 83 0.0 0.0 0.00 0.38 0.00 90 1009.5
20260904035522 68 83 0.0 0.0 0.00 0.38 0.38 90 1009.5
20260904035007 68 83 0.0 0.0 0.00 0.38 0.38 90 1009.5
20260904034517 68 83 0.0 0.0 0.00 0.38 0.38 89 1009.6
20260904034026 68 83 0.0 0.0 0.00 0.38 0.38 90 1009.6
20260904033503 68 83 0.0 0.0 0.00 0.38 0.38 89 1009.7
20260904033028 68 83 0.0 0.0 0.00 0.38 0.38 89 1009.8
20260904032501 68 83 0.0 0.0 0.00 0.38 0.38 89 1009.6
20260904032000 68 83 0.0 0.0 0.00 0.38 0.38 89 1009.4
20260904031502 68 83 0.0 0.0 0.00 0.38 0.38 89 1009.5
20260904030500 68 83 0.0 0.0 0.00 0.38 0.38 89 1009.7
20260904030026 68 83 0.0 0.0 0.00 0.38 0.38 89 1009.6
20260904025508 68 83 0.0 0.0 0.00 0.38 0.38 89 1009.7
20260904025026 68 83 0.0 0.0 0.00 0.38 0.38 89 1009.7
20260904024506 68 83 0.0 0.0 0.00 0.38 0.38 89 1009.7
20260904024000 68 83 0.0 0.0 0.00 0.38 0.38 89 1009.9
20260904023504 68 83 0.0 0.0 0.00 0.38 0.38 89 1009.9
20260904022507 68 83 0.0 0.0 0.00 0.38 0.38 89 1009.8
20260904022000 68 83 0.0 0.0 0.00 0.38 0.38 89 1010.0
20260904021504 68 83 0.0 0.0 0.00 0.38 0.38 89 1010.0
20260904021003 68 83 0.0 0.0 0.00 0.38 0.38 89 1010.0
20260904020511 68 83 0.0 0.0 0.00 0.38 0.38 89 1010.0
20260904020024 68 83 0.0 0.0 0.00 0.38 0.38 89 1009.9
20260904015504 68 83 0.0 0.0 0.00 0.38 0.38 89 1010.1
20260904015006 68 83 0.0 0.0 0.00 0.38 0.38 89 1010.1
20260904014531 68 83 0.0 0.0 0.00 0.38 0.38 89 1010.2
20260904014027 68 83 0.0 0.0 0.00 0.38 0.38 89 1010.4
20260904013503 68 83 0.0 0.0 0.00 0.38 0.38 89 1010.5
20260904013007 68 83 0.0 0.0 0.00 0.38 0.38 88 1010.6
20260904012511 68 83 0.0 0.0 0.00 0.38 0.38 88 1010.4
20260904012004 68 83 0.0 0.0 0.00 0.38 0.38 88 1010.6
20260904011504 68 83 0.0 0.0 0.00 0.38 0.38 88 1010.4
20260904011024 68 83 0.0 0.0 0.00 0.38 0.38 88 1010.5
20260904010502 68 83 0.0 0.0 0.00 0.38 0.38 88 1010.4
20260904010027 68 83 0.0 0.0 0.00 0.38 0.38 88 1010.2
20260904005507 68 83 0.0 0.0 0.00 0.38 0.38 88 1010.1
20260904005031 68 83 0.0 0.0 0.00 0.38 0.38 88 1010.0
20260904004506 68 83 0.0 0.0 0.00 0.38 0.38 88 1010.0
20260904004004 68 83 0.0 0.0 0.00 0.38 0.38 88 1010.1
20260904003504 68 83 0.0 0.0 0.00 0.38 0.38 88 1010.0
20260904003038 68 83 0.0 0.0 0.00 0.38 0.38 88 1010.0
20260904002504 68 83 0.0 0.0 0.00 0.38 0.38 87 1009.9
20260904002018 68 83 0.0 0.0 0.00 0.38 0.38 87 1009.8
20260904001525 68 83 0.0 0.0 0.00 0.38 0.38 87 1009.8
20260904001000 68 83 0.0 0.0 0.00 0.38 0.38 87 1009.6
20260904000506 68 83 0.0 0.0 0.00 0.38 0.38 87 1009.6